Погода в Магадане

Россия / Магаданская область     59°34′05″N   150°48′30″E
темп.,
°C
ветер,
м/с
пор.,
м/с
влажн.,
%
обл.,
%
осадки,
мм/ч
давл.,
гПа
погр.,
м
26 июня, вс
вс2623:00+7зюз229799 0.1 100967
02:00+7зюз1197100 0.1 100940
05:00+7зюз229799 0.1 100847
08:00+7зюз229595 0.0 100797
11:00+8юз329282 0.1 1006146
14:00+9зюз439165 0.0 1005184
17:00+8зюз449358 0.0 1004177
20:00+8юз229459 0.0 100494
27 июня, пн
пн2723:00+7юв119758 0.1 100439
02:00+7ююв119869 0.0 100418
05:00+7вюв229762 0.0 100446
08:00+8юв119463 0.0 100579
11:00+9ююв329061 0.0 1004134
14:00+9ююз328953 0.0 1004135
17:00+9юз339051 0.1 1005120
20:00+8юз229471 0.1 100595
28 июня, вт
вт2823:00+7ююз229578 0.1 1005123
02:00+6ю229687 0.1 1006128
05:00+6ююв229687 0.3 1006104
08:00+7ю229485 0.1 1006153
11:00+7ю339490 0.2 1006212
14:00+7юз449491 0.1 1006231
17:00+7ююз349592 0.1 1006263
20:00+7ююз349796 0.1 1007267
29 июня, ср
ср2923:00+6ююз3498100 0.2 1007240
02:00+7ююз2397100 0.1 1007108
05:00+7ююз339796 0.3 1008109
08:00+7ююз339795 0.1 1008173
11:00+7юз339588 0.1 1008204
14:00+8юз459489 0.0 1009236
17:00+8юз4494100 0.0 1008195
20:00+8ююз2395100 0.0 1009111
30 июня, чт
чт3023:00+7ююв2296100 0.0 1009100
02:00+7юв2297100 0.0 100975
05:00+7юв239799 0.0 100992
08:00+8вюв229481 0.0 1009112
11:00+10ю328967 0.0 1008170
14:00+10юз339166 0.0 1008136
17:00+9ююз3391100 0.0 1007152
20:00+8ююз349471 0.0 1007157